Regional Weather Roundup
Issued by NWS Cleveland, OH

Home | Current Version | Previous Version | Graphics & Text | Print | Product List | Glossary On
Versions: 1 2 3 4 5 6 7 8 9 10 11 12 13 14 15 16 17 18 19 20 21 22 23 24 25 26 27 28 29 30 31 32 33 34 35 36 37 38 39 40 41 42 43 44 45 46 47 48 49 50
000
ASUS41 KCLE 162110
RWRCLE
OHIO REGIONAL WEATHER ROUNDUP
NATIONAL WEATHER SERVICE WILMINGTON, OH
500 PM EDT MON OCT 16 2017

NOTE: "FAIR" INDICATES FEW OR NO CLOUDS BELOW 12,000 FEET WITH NO
SIGNIFICANT WEATHER AND/OR OBSTRUCTIONS TO VISIBILITY.

OHZ001>008-015>018-024>027-034-035-043-044-162200-
   NORTHWEST OHIO

CITY           SKY/WX    TMP DP  RH WIND       PRES   REMARKS
DEFIANCE       CLOUDY    57  39  51 CALM      30.27S
FINDLAY        PTSUNNY   59  38  45 NW5       30.26F
TOLEDO EXPRESS CLOUDY    57  40  52 NW6       30.26S
TOLEDO EXEC    CLOUDY    57  38  48 W8        30.27S
LIMA           PTSUNNY   55  39  54 CALM      30.27F
$$

OHZ009>014-019>023-028>033-038-089-162200-
   NORTHEAST OHIO

CITY           SKY/WX    TMP DP  RH WIND       PRES   REMARKS
CLE-HOPKINS    FAIR      55  35  47 NW9       30.30R
CLE-LAKEFRONT  FAIR      54  32  43 W9        30.27S
CUY CO. ARPT   MOSUNNY   55  32  41 NW12      30.28R
LORAIN-ELYRIA  FAIR      54  28  36 NW8       30.29R
ASHTABULA      PTSUNNY   53  35  50 W13G18    30.26S
AKRON-CANTON   FAIR      54  31  41 NW9       30.25R
WOOSTER        FAIR      55  33  43 NW7       30.27S
MANSFIELD      CLOUDY    54  34  46 NW12      30.27R
YOUNGSTOWN     FAIR      55  34  45 N14G22    30.24R
$$

OHZ042-051>053-060>062-070>072-077>081-162200-
  SOUTHWEST OHIO

CITY           SKY/WX    TMP DP  RH WIND       PRES   REMARKS
CINC-COVINGTON FAIR      58  38  47 NW8       30.28S
CINC-LUNKEN    PTSUNNY   60  37  42 N9        30.29F
HAMILTON       FAIR      59  38  45 N5        30.29F
DAYTON         FAIR      57  38  48 NW9       30.28F
WRIGHT-PAT AFB PTSUNNY   59  33  38 NW8       30.27F
DAYTON GENERAL FAIR      58  34  40 N7        30.27F
WILMINGTON     CLOUDY    56  38  50 N9        30.28S
$$

OHZ036-037-039>041-045>050-054>059-063>069-073>076-082>088-162200-
  CENTRAL AND SOUTHEAST OHIO

CITY           SKY/WX    TMP DP  RH WIND       PRES   REMARKS
COLUMBUS       PTSUNNY   57  37  47 N10       30.27S
OSU AIRPORT    PTSUNNY   56  39  53 NW7       30.27S
BOLTON FIELD   CLOUDY    55  37  50 N8        30.28S
RICKENBACK AFB PTSUNNY   58  37  46 N10       30.27S
NEWARK         FAIR      60  34  37 NW12G18   30.26S
MARION         NOT AVBL
LANCASTER      PTSUNNY   58  37  45 NW8       30.27S
ZANESVILLE     FAIR      56  37  49 W6        30.26R
NEW PHILLY     CLOUDY    58  36  43 NW10      30.26R
$$




USA.gov is the U.S. government's official web portal to all federal, state and local government web resources and services.